This demonstration page uses our WeatherBlox Daily Observations layout. Learn more.

Left ArrowRight Arrow

Hourly Observations for September 5, 2015

Temp ( °F °C ) Dew Point ( °F °C ) Humidity (%) Winds ( mph kmh ) Pressure ( in mb ) Visibility ( mi km ) Precip ( " mm )
12:51 am 00:51 Mostly Clear 70 21.1 64 17.8 82 82 SSE 7 11 29.85 1011 10 16.0934 0 0
1:51 am 01:51 Mostly Clear 69 20.6 64 17.8 84 84 SE 3 6 29.85 1011 10 16.0934 0 0
2:51 am 02:51 Mostly Clear 69 20.6 64 17.8 84 84 SSE 5 7 29.84 1010 10 16.0934 0 0
3:51 am 03:51 Clear 69 20.6 64 17.8 84 84 SSE 7 11 29.84 1011 10 16.0934 0 0
4:51 am 04:51 Partly Cloudy 69 20.6 64 17.8 84 84 Calm 29.86 1011 10 16.0934 0 0
5:51 am 05:51 Mostly Cloudy 68 20 64 17.8 87 87 SSW 3 6 29.88 1012 10 16.0934 0 0.0254
6:51 am 06:51 Sunny 69 20.6 65 18.3 87 87 Calm 29.91 1013 10 16.0934 0 0.0254
7:51 am 07:51 Mostly Cloudy with Light Rain 69 20.6 66 18.9 90 90 E 5 7 29.92 1013 10 16.0934 0.01 0.254
8:51 am 08:51 Partly Cloudy 70 21.1 66 18.9 87 87 S 5 7 29.94 1014 10 16.0934 0 0.0254
9:51 am 09:51 Mostly Cloudy with Light Rain 72 22.2 64 17.8 76 76 S 6 9 29.96 1015 10 16.0934 0 0.0254
10:51 am 10:51 Partly Cloudy 74 23.3 64 17.8 71 71 SSE 3 6 29.97 1015 10 16.0934 0 0.0254
11:51 am 11:51 Cloudy 74 23.3 64 17.8 71 71 N 5 7 29.97 1015 10 16.0934 0 0.0254
12:51 pm 12:51 Mostly Sunny 76 24.4 64 17.8 67 67 WNW 3 6 29.94 1014 10 16.0934 0 0.0254
1:51 pm 13:51 Mostly Sunny 78 25.6 63 17.2 60 60 WNW 5 7 29.93 1013 10 16.0934 0 0
2:51 pm 14:51 Cloudy 77 25 63 17.2 62 62 SW 6 9 29.91 1013 10 16.0934 0 0
3:51 pm 15:51 Cloudy 77 25 62 16.7 60 60 Calm 29.89 1012 10 16.0934 0 0
4:51 pm 16:51 Sunny 77 25 63 17.2 62 62 WNW 6 9 29.88 1012 10 16.0934 0 0
5:51 pm 17:51 Sunny 76 24.4 63 17.2 64 64 NW 8 13 29.88 1012 10 16.0934 0 0
6:51 pm 18:51 Clear 74 23.3 64 17.8 71 71 NW 6 9 29.88 1012 10 16.0934 0 0
7:51 pm 19:51 Clear 71 21.7 64 17.8 79 79 NW 7 11 29.91 1013 10 16.0934 0 0
8:51 pm 20:51 Clear 70 21.1 64 17.8 82 82 NNW 6 9 29.93 1014 10 16.0934 0 0
9:51 pm 21:51 Clear 71 21.7 64 17.8 79 79 NNW 7 11 29.93 1013 10 16.0934 0 0
10:51 pm 22:51 Clear 68 20 63 17.2 84 84 NNE 5 7 29.93 1013 10 16.0934 0 0
11:51 pm 23:51 Clear 69 20.6 63 17.2 81 81 Calm 29.92 1013 10 16.0934 0 0

Powered by AerisWeather